Weather in Prigorskoye

Russia / Smolensk Oblast     54°41′03″N   32°08′27″E
temp.,
°C
wind,
m/s
gust,
m/s
humid.,
%
clouds,
%
prec.,
mm/h
press.,
hPa
HPBL,
m
18 may, tue
tue1800:00+16ese499111 0.4 1003205
03:00+16ese41095100 0.4 1002272
06:00+16se41297100 1.4 1002436
09:00+19sse698464 1.4 1003805
12:00+21sse5666100 0.0 1004954
15:00+19s2379100 0.6 1003352
18:00+18wsw1183100 1.7 1002268
21:00+15wsw3694100 4.5 1001124
19 may, wed
wed1900:00+15ese2395100 2.6 100188
03:00+14ese3797100 2.8 1001236
06:00+14se5109793 0.7 1001479
09:00+17sse7108353 0.9 1003860
12:00+19sse687096 0.8 10031348
15:00+19s7962100 1.3 10041652
18:00+18s4770100 0.0 1004976
21:00+13sw3390100 0.0 100545
20 may, thu
thu2000:00+12sw1188100 0.0 100510
03:00+12nnw3589100 0.1 1003144
06:00+12nw4895100 0.1 1002338
09:00+11nw71297100 6.8 1001621
12:00+10nw81496100 2.8 1002617
15:00+10nw81495100 5.9 1003824
18:00+9wnw91594100 1.7 1006811
21:00+9wnw61490100 1.9 1009671
21 may, fri
fri2100:00+8w51296100 0.0 1011367
03:00+7wnw3109612 0.0 1013217
06:00+7wnw35950 0.0 1014127
09:00+12w357997 0.0 1015502
12:00+15w4565100 0.1 10161392
15:00+17w455533 0.1 10161726
18:00+16wnw346410 0.0 10161425
21:00+10nw33775 0.0 101823
22 may, sat
sat2200:00+8nnw11746 0.0 101810
03:00+7n11750 0.0 101810
06:00+8ese22790 0.0 101925
09:00+13e226329 0.0 1018350
12:00+17sse3354100 0.0 10171281
15:00+19s345428 0.0 10161792
18:00+17sse2266100 0.0 101645
21:00+13sse3383100 0.0 101538